VK4VP-5 Weather Reports


time (UTC)temp
F
wind
direction
speed
knots
gust
knots
rain 1hr
in
rain 24hr
in
rain mn
in
humidity
%
barometer
mb
20260503022129 80 104 0.9 3.5 0.00 0.00 0.00 78 1014.9
20260503021629 80 134 0.9 3.5 0.00 0.00 0.00 77 1014.9
20260503021129 80 149 0.9 4.3 0.00 0.00 0.00 77 1014.9
20260503020630 80 132 0.9 4.3 0.00 0.00 0.00 77 1014.9
20260503020130 80 121 0.9 4.3 0.00 0.00 0.00 77 1014.9
20260503015629 80 123 0.9 3.5 0.00 0.00 0.00 77 1015.2
20260503015129 80 143 0.9 4.3 0.00 0.00 0.00 79 1015.2
20260503014630 80 156 0.9 4.3 0.00 0.00 0.00 78 1015.2
20260503014130 79 158 0.9 4.3 0.00 0.00 0.00 79 1015.4
20260503013630 79 155 0.9 4.3 0.00 0.00 0.00 78 1015.4
20260503013129 79 141 0.9 3.5 0.00 0.00 0.00 78 1015.4
20260503012630 79 146 0.9 3.5 0.00 0.00 0.00 77 1015.5
20260503012129 79 154 0.9 4.3 0.00 0.00 0.00 78 1015.5
20260503011630 79 144 0.9 4.3 0.00 0.00 0.00 78 1015.5
20260503011130 79 137 0.9 4.3 0.00 0.00 0.00 78 1015.6
20260503010631 79 133 0.9 4.3 0.00 0.00 0.00 79 1015.6
20260503010131 79 117 0.9 3.5 0.00 0.00 0.00 79 1015.6
20260503005629 79 131 0.9 3.5 0.00 0.00 0.00 79 1016.0
20260503005129 79 144 0.9 3.5 0.00 0.00 0.00 78 1016.0
20260503004630 79 141 0.9 5.2 0.00 0.00 0.00 79 1016.0
20260503004129 79 147 0.9 5.2 0.00 0.00 0.00 79 1016.1
20260503003630 79 0 0.0 3.5 0.00 0.00 0.00 81 1016.1
20260503003130 79 132 0.9 2.6 0.00 0.00 0.00 80 1016.1
20260503002629 79 123 0.9 4.3 0.00 0.00 0.00 81 1016.3
20260503002131 78 150 0.9 6.1 0.00 0.00 0.00 80 1016.3
20260503001630 78 159 0.9 6.1 0.00 0.00 0.00 81 1016.3
20260503001130 78 0 0.0 5.2 0.00 0.00 0.00 82 1016.4
20260503000629 78 0 0.0 5.2 0.00 0.00 0.00 83 1016.4
20260503000130 78 0 0.0 2.6 0.00 0.00 0.00 83 1016.4
20260502235632 78 0 0.0 2.6 0.00 0.00 0.00 83 1016.3
20260502235129 78 0 0.0 2.6 0.00 0.00 0.00 84 1016.3
20260502234630 78 0 0.0 1.7 0.00 0.00 0.00 84 1016.3
20260502234129 77 0 0.0 0.9 0.00 0.00 0.00 85 1016.3
20260502233629 77 0 0.0 1.7 0.00 0.00 0.00 86 1016.3
20260502233129 76 0 0.0 1.7 0.00 0.00 0.00 86 1016.3
20260502232630 76 0 0.0 2.6 0.00 0.00 0.00 87 1016.3
20260502232130 76 0 0.0 2.6 0.00 0.00 0.00 87 1016.3
20260502231630 76 0 0.0 2.6 0.00 0.00 0.00 88 1016.3
20260502231129 75 0 0.0 1.7 0.00 0.00 0.00 89 1016.3
20260502230630 74 0 0.0 5.2 0.00 0.00 0.00 89 1016.3
20260502230129 74 0 0.0 5.2 0.00 0.00 0.00 90 1016.3
20260502225630 74 0 0.0 0.0 0.00 0.00 0.00 90 1016.3
20260502225130 73 0 0.0 4.3 0.00 0.00 0.00 91 1016.3
20260502224629 73 0 0.0 4.3 0.00 0.00 0.00 91 1016.3
20260502224130 72 0 0.0 0.9 0.00 0.00 0.00 91 1016.2
20260502223630 72 0 0.0 0.9 0.00 0.00 0.00 91 1016.2
20260502223130 71 0 0.0 1.7 0.00 0.00 0.00 92 1016.2
20260502222629 71 0 0.0 1.7 0.00 0.00 0.00 92 1016.0
20260502222130 70 0 0.0 1.7 0.00 0.00 0.00 93 1016.0
20260502221629 70 0 0.0 1.7 0.00 0.00 0.00 93 1016.0
20260502221129 70 0 0.0 1.7 0.00 0.00 0.00 93 1016.0
20260502220630 69 0 0.0 2.6 0.00 0.00 0.00 93 1016.0
20260502220130 69 0 0.0 3.5 0.00 0.00 0.00 93 1016.0
20260502215630 68 0 0.0 3.5 0.00 0.00 0.00 93 1015.8
20260502215128 68 0 0.0 0.9 0.00 0.00 0.00 93 1015.8
20260502214629 68 0 0.0 0.9 0.00 0.00 0.00 93 1015.8
20260502214131 68 0 0.0 0.9 0.00 0.00 0.00 94 1015.7
20260502213629 68 0 0.0 1.7 0.00 0.00 0.00 94 1015.7
20260502213130 67 0 0.0 2.6 0.00 0.00 0.00 94 1015.7
20260502212630 67 0 0.0 2.6 0.00 0.00 0.00 94 1015.5
20260502212129 67 0 0.0 0.0 0.00 0.00 0.00 93 1015.5
20260502211630 66 0 0.0 0.0 0.00 0.00 0.00 93 1015.5
20260502211130 66 0 0.0 0.0 0.00 0.00 0.00 93 1015.5
20260502210630 66 0 0.0 0.0 0.00 0.00 0.00 93 1015.5
20260502210130 66 0 0.0 0.0 0.00 0.00 0.00 93 1015.5
20260502205629 66 0 0.0 0.0 0.00 0.00 0.00 93 1015.4
20260502205130 66 0 0.0 0.9 0.00 0.00 0.00 93 1015.4
20260502204629 66 0 0.0 2.6 0.00 0.00 0.00 93 1015.4
20260502204130 66 0 0.0 2.6 0.00 0.00 0.00 93 1015.4
20260502203629 66 0 0.0 1.7 0.00 0.00 0.00 93 1015.4
20260502203129 66 0 0.0 1.7 0.00 0.00 0.00 93 1015.4
20260502202629 66 0 0.0 0.9 0.00 0.00 0.00 93 1015.3
20260502202128 66 0 0.0 0.0 0.00 0.00 0.00 93 1015.3
20260502201628 66 0 0.0 3.5 0.00 0.00 0.00 92 1015.3
20260502201130 66 0 0.0 3.5 0.00 0.00 0.00 92 1014.9
20260502200630 66 0 0.0 1.7 0.00 0.00 0.00 92 1014.9
20260502200129 66 0 0.0 1.7 0.00 0.00 0.00 92 1014.9
20260502195628 66 0 0.0 1.7 0.00 0.00 0.00 92 1014.9
20260502195129 66 0 0.0 0.9 0.00 0.00 0.00 92 1014.9
20260502194629 66 0 0.0 1.7 0.00 0.00 0.00 92 1014.9
20260502194128 66 0 0.0 1.7 0.00 0.00 0.00 92 1014.9
20260502193630 66 0 0.0 1.7 0.00 0.00 0.00 92 1014.9
20260502193129 67 0 0.0 1.7 0.00 0.00 0.00 92 1014.9
20260502192629 67 0 0.0 0.9 0.00 0.00 0.00 92 1014.7
20260502192130 67 0 0.0 0.0 0.00 0.00 0.00 92 1014.7
20260502191629 67 0 0.0 2.6 0.00 0.00 0.00 92 1014.7
20260502191130 67 0 0.0 2.6 0.00 0.00 0.00 92 1014.8
20260502190631 67 0 0.0 0.9 0.00 0.00 0.00 92 1014.8
20260502190129 67 0 0.0 1.7 0.00 0.00 0.00 91 1014.8
20260502185629 67 0 0.0 1.7 0.00 0.00 0.00 92 1014.9
20260502185130 68 0 0.0 1.7 0.00 0.00 0.00 92 1014.9
20260502184630 68 0 0.0 3.5 0.00 0.00 0.00 91 1014.9
20260502184129 68 0 0.0 3.5 0.00 0.00 0.00 91 1014.9
20260502183629 68 0 0.0 1.7 0.00 0.00 0.00 91 1014.9
20260502183129 68 0 0.0 4.3 0.00 0.00 0.00 91 1014.9
20260502182629 68 0 0.0 4.3 0.00 0.00 0.00 91 1014.7
20260502182130 68 0 0.0 0.9 0.00 0.00 0.00 91 1014.7
20260502181629 68 0 0.0 4.3 0.00 0.00 0.00 91 1014.7
20260502181129 68 0 0.0 4.3 0.00 0.00 0.00 91 1014.5
20260502180630 68 0 0.0 1.7 0.00 0.00 0.00 90 1014.5
20260502180128 68 0 0.0 5.2 0.00 0.00 0.00 90 1014.5
20260502170129 70 0 0.0 0.9 0.00 0.00 0.00 85 1014.9
20260502164129 71 0 0.0 1.7 0.00 0.00 0.00 83 1015.0
20260502163629 71 0 0.0 1.7 0.00 0.00 0.00 83 1015.0
20260502163130 72 0 0.0 0.9 0.00 0.00 0.00 83 1015.0
20260502162630 72 0 0.0 0.9 0.00 0.00 0.00 83 1015.0
20260502162128 72 0 0.0 1.7 0.00 0.00 0.00 83 1015.0
20260502161628 72 0 0.0 1.7 0.00 0.00 0.00 83 1015.0
20260502161129 72 0 0.0 0.9 0.00 0.01 0.00 83 1015.1
20260502160628 72 0 0.0 0.9 0.00 0.01 0.00 83 1015.1
20260502160128 72 0 0.0 0.9 0.00 0.01 0.00 83 1015.1
20260502152129 72 0 0.0 2.6 0.00 0.01 0.00 83 1015.3
20260502151628 72 0 0.0 2.6 0.00 0.01 0.00 82 1015.3
20260502151129 72 0 0.0 1.7 0.00 0.01 0.00 82 1015.5
20260502150629 72 0 0.0 2.6 0.00 0.01 0.00 82 1015.5
20260502150129 72 0 0.0 2.6 0.00 0.01 0.00 82 1015.5
20260502140128 73 0 0.0 3.5 0.00 0.01 0.00 83 1015.9
20260502130629 73 0 0.0 3.5 0.00 0.01 0.01 83 1016.2
20260502130129 73 0 0.0 3.5 0.00 0.01 0.01 84 1016.2
20260502123630 74 129 0.9 4.3 0.00 0.01 0.01 84 1016.3
20260502123130 74 0 0.0 4.3 0.00 0.01 0.01 84 1016.3
20260502122630 74 0 0.0 3.5 0.00 0.02 0.01 84 1016.3
20260502122129 74 0 0.0 3.5 0.00 0.02 0.01 84 1016.3
20260502121628 74 143 0.9 4.3 0.00 0.02 0.01 84 1016.3
20260502121129 74 0 0.0 4.3 0.00 0.02 0.01 84 1016.3
20260502120629 74 0 0.0 4.3 0.00 0.05 0.01 84 1016.3
20260502120128 74 0 0.0 4.3 0.00 0.08 0.01 84 1016.3
20260502115630 74 0 0.0 2.6 0.00 0.09 0.01 84 1016.3
20260502115129 74 0 0.0 3.5 0.00 0.09 0.01 85 1016.3
20260502114629 74 0 0.0 3.5 0.00 0.10 0.01 85 1016.3
20260502114129 74 0 0.0 3.5 0.00 0.12 0.01 85 1016.1
20260502113628 74 0 0.0 3.5 0.00 0.15 0.01 85 1016.1
20260502113128 74 0 0.0 2.6 0.00 0.26 0.01 85 1016.1
20260502112629 74 0 0.0 2.6 0.00 0.27 0.01 85 1016.1
20260502112130 74 139 0.9 3.5 0.00 0.27 0.01 85 1016.1
20260502111630 74 138 0.9 5.2 0.00 0.28 0.01 85 1016.1
20260502111128 74 0 0.0 5.2 0.00 0.28 0.01 85 1016.2
20260502110629 74 0 0.0 2.6 0.00 0.29 0.01 86 1016.2
20260502110128 74 0 0.0 2.6 0.00 0.29 0.01 85 1016.2
20260502105629 74 0 0.0 2.6 0.00 0.29 0.01 85 1016.3
20260502105128 74 0 0.0 2.6 0.00 0.29 0.01 85 1016.3
20260502104630 74 0 0.0 6.1 0.00 0.30 0.01 86 1016.3
20260502104129 74 0 0.0 6.1 0.00 0.30 0.01 86 1016.4
20260502103629 74 0 0.0 1.7 0.00 0.33 0.01 86 1016.4
20260502103128 74 0 0.0 1.7 0.00 0.33 0.01 86 1016.4
20260502102629 74 0 0.0 1.7 0.00 0.33 0.01 85 1016.2
20260502102129 74 0 0.0 3.5 0.00 0.33 0.01 85 1016.2
20260502101629 74 0 0.0 3.5 0.00 0.33 0.01 85 1016.2
20260502101128 74 0 0.0 3.5 0.00 0.34 0.01 86 1016.1
20260502100629 74 0 0.0 3.5 0.00 0.34 0.01 86 1016.1
20260502100128 74 131 0.9 3.5 0.00 0.34 0.01 86 1016.1
20260502091128 74 0 0.0 4.3 0.00 0.35 0.01 86 1015.3
20260502090629 74 0 0.0 4.3 0.00 0.35 0.01 86 1015.3
20260502090129 74 147 0.9 4.3 0.00 0.35 0.01 86 1015.3
20260502071129 75 133 0.9 3.5 0.00 0.35 0.01 84 1014.4
20260502070631 76 0 0.0 3.5 0.00 0.35 0.01 84 1014.4
20260502070129 76 102 0.9 3.5 0.00 0.35 0.01 84 1014.4
20260502065630 76 108 0.9 4.3 0.00 0.35 0.01 84 1014.4
20260502065131 76 124 0.9 4.3 0.00 0.35 0.01 84 1014.4
20260502064631 76 121 0.9 3.5 0.00 0.35 0.01 84 1014.4
20260502064129 76 134 0.9 5.2 0.00 0.35 0.01 84 1014.2
20260502063631 76 0 0.0 5.2 0.00 0.35 0.01 84 1014.2
20260502063130 77 0 0.0 2.6 0.00 0.35 0.01 84 1014.2
20260502062630 77 0 0.0 1.7 0.00 0.35 0.01 83 1014.4
20260502062129 77 133 0.9 3.5 0.00 0.35 0.01 83 1014.4
20260502061629 77 141 0.9 4.3 0.00 0.35 0.01 83 1014.4
20260502061131 78 148 0.9 5.2 0.00 0.35 0.01 83 1014.4
20260502060630 78 142 0.9 5.2 0.00 0.35 0.01 83 1014.4
20260502060131 78 144 0.9 7.0 0.00 0.35 0.01 83 1014.4
20260502055629 78 145 0.9 7.0 0.00 0.35 0.01 83 1014.3
20260502055131 78 135 0.9 5.2 0.00 0.35 0.01 84 1014.3
20260502054631 78 0 0.0 5.2 0.00 0.35 0.01 84 1014.3
20260502054130 78 0 0.0 2.6 0.00 0.35 0.01 84 1014.4
20260502053629 78 143 0.9 4.3 0.00 0.35 0.01 82 1014.4
20260502053131 78 141 0.9 4.3 0.00 0.35 0.01 82 1014.4
20260502052631 78 141 0.9 4.3 0.00 0.35 0.01 82 1014.4
20260502052130 78 136 0.9 8.7 0.00 0.35 0.01 81 1014.4
20260502051630 79 140 0.9 8.7 0.00 0.35 0.01 81 1014.4
20260502051130 79 148 0.9 2.6 0.00 0.35 0.01 81 1014.4
20260502050629 79 137 0.9 2.6 0.00 0.35 0.01 82 1014.4
20260502050129 79 148 0.9 3.5 0.00 0.35 0.01 81 1014.4
20260502045631 79 152 0.9 3.5 0.00 0.35 0.01 80 1014.4
20260502045130 79 147 0.9 3.5 0.00 0.35 0.01 81 1014.4
20260502044630 79 149 0.9 7.8 0.00 0.35 0.01 82 1014.4
20260502044130 79 152 0.9 7.8 0.00 0.35 0.01 82 1014.4
20260502043632 78 147 0.9 3.5 0.00 0.35 0.01 82 1014.4
20260502043129 78 134 0.9 3.5 0.00 0.35 0.01 81 1014.4
20260502042631 79 138 0.9 6.1 0.00 0.35 0.01 81 1014.4
20260502042129 79 142 0.9 6.1 0.00 0.35 0.01 80 1014.4
20260502041630 79 132 0.9 5.2 0.00 0.35 0.01 80 1014.4
20260502041129 79 146 0.9 5.2 0.00 0.35 0.01 80 1014.5
20260502040630 79 165 0.9 4.3 0.00 0.35 0.01 81 1014.5
20260502040130 79 154 0.9 13.0 0.00 0.35 0.01 81 1014.5
20260502035630 80 146 0.9 13.0 0.00 0.35 0.01 80 1014.6
20260502035129 80 149 0.9 3.5 0.00 0.35 0.01 81 1014.6
20260502034630 80 148 0.9 9.6 0.00 0.35 0.01 80 1014.6
20260502034129 80 146 1.7 9.6 0.00 0.35 0.01 79 1014.7
20260502033630 80 148 0.9 8.7 0.00 0.35 0.01 79 1014.7
20260502033129 80 147 0.9 8.7 0.00 0.35 0.01 79 1014.7
20260502032630 80 147 0.9 8.7 0.00 0.35 0.01 80 1014.8
20260502032129 80 140 0.9 6.1 0.00 0.35 0.01 80 1014.8
20260502031631 80 141 0.9 6.1 0.00 0.35 0.01 79 1014.8
20260502031129 80 152 0.9 7.0 0.00 0.35 0.01 79 1014.9
20260502030629 80 134 0.9 7.0 0.00 0.35 0.01 79 1014.9
20260502030130 80 130 0.9 5.2 0.00 0.35 0.01 79 1014.9
20260502025629 80 148 1.7 5.2 0.00 0.35 0.01 79 1015.1
20260502025129 80 141 1.7 7.0 0.00 0.35 0.01 79 1015.1
20260502024629 80 116 0.9 7.0 0.00 0.35 0.01 79 1015.1
20260502024130 80 124 0.9 7.0 0.00 0.35 0.01 79 1015.3
20260502023629 80 140 0.9 5.2 0.00 0.35 0.01 79 1015.3
20260502023130 80 143 1.7 9.6 0.00 0.35 0.01 78 1015.3
20260502022629 81 139 1.7 9.6 0.00 0.35 0.01 79 1015.5